N5PUP-13 Weather Reports


time (UTC)temp
C
wind
direction
speed
KPH
gust
KPH
rain 1hr
cm
rain 24hr
cm
rain mn
cm
humidity
%
barometer
mb
20260906211000 37 135 8.0 16.1 0.00 0.00 0.00 29 1012.6
20260906210500 38 161 9.7 24.1 0.00 0.00 0.00 29 1012.7
20260906210000 40 128 14.5 22.5 0.00 0.00 0.00 27 1012.7
20260906205500 39 122 14.5 24.1 0.00 0.00 0.00 27 1012.8
20260906205000 38 138 11.3 22.5 0.00 0.00 0.00 28 1012.8
20260906204500 37 132 12.9 22.5 0.00 0.00 0.00 30 1012.9
20260906204000 39 200 4.8 11.3 0.00 0.00 0.00 28 1013.0
20260906203500 39 184 6.4 22.5 0.00 0.00 0.00 28 1013.0
20260906203000 39 155 11.3 20.9 0.00 0.00 0.00 28 1013.1
20260906202500 38 138 9.7 22.5 0.00 0.00 0.00 30 1013.2
20260906202000 39 135 12.9 25.7 0.00 0.00 0.00 28 1013.3
20260906201500 38 124 12.9 22.5 0.00 0.00 0.00 29 1013.3
20260906201000 38 120 11.3 22.5 0.00 0.00 0.00 29 1013.5
20260906200500 39 175 8.0 19.3 0.00 0.00 0.00 28 1013.6
20260906200000 38 148 9.7 17.7 0.00 0.00 0.00 28 1013.7
20260906195500 38 131 11.3 17.7 0.00 0.00 0.00 29 1013.7
20260906195000 39 159 11.3 22.5 0.00 0.00 0.00 27 1013.8
20260906194500 39 140 9.7 19.3 0.00 0.00 0.00 28 1013.8
20260906194000 39 130 11.3 22.5 0.00 0.00 0.00 28 1013.9
20260906193500 39 167 9.7 19.3 0.00 0.00 0.00 28 1014.1
20260906193000 40 169 4.8 25.7 0.00 0.00 0.00 27 1014.2
20260906192500 39 160 8.0 22.5 0.00 0.00 0.00 28 1014.3
20260906192000 39 160 8.0 16.1 0.00 0.00 0.00 28 1014.4
20260906191500 38 138 4.8 12.9 0.00 0.00 0.00 30 1014.3
20260906191000 38 152 6.4 16.1 0.00 0.00 0.00 29 1014.4
20260906190500 37 131 9.7 14.5 0.00 0.00 0.00 30 1014.5
20260906190000 37 141 8.0 12.9 0.00 0.00 0.00 31 1014.5
20260906185500 37 144 6.4 11.3 0.00 0.00 0.00 30 1014.6
20260906185000 39 135 8.0 16.1 0.00 0.00 0.00 28 1014.7
20260906184500 38 172 6.4 19.3 0.00 0.00 0.00 29 1014.7
20260906184000 39 178 11.3 22.5 0.00 0.00 0.00 28 1014.9
20260906183500 38 189 6.4 25.7 0.00 0.00 0.00 30 1014.8
20260906183000 38 183 6.4 22.5 0.00 0.00 0.00 29 1014.9
20260906182500 38 110 8.0 20.9 0.00 0.00 0.00 29 1014.9
20260906182000 39 169 8.0 17.7 0.00 0.00 0.00 28 1015.0
20260906181500 38 198 4.8 12.9 0.00 0.00 0.00 29 1015.1
20260906181000 37 133 8.0 16.1 0.00 0.00 0.00 31 1015.2
20260906180500 37 128 12.9 22.5 0.00 0.00 0.00 31 1015.3
20260906180000 37 141 6.4 25.7 0.00 0.00 0.00 31 1015.3
20260906175500 37 166 6.4 16.1 0.00 0.00 0.00 31 1015.3
20260906175000 36 191 8.0 20.9 0.00 0.00 0.00 33 1015.5
20260906174500 37 194 9.7 19.3 0.00 0.00 0.00 31 1015.6
20260906174000 37 168 11.3 20.9 0.00 0.00 0.00 31 1015.7
20260906173500 37 132 12.9 22.5 0.00 0.00 0.00 31 1015.7
20260906173000 37 142 8.0 16.1 0.00 0.00 0.00 31 1015.8
20260906172500 37 224 6.4 19.3 0.00 0.00 0.00 32 1015.8
20260906172000 37 172 9.7 17.7 0.00 0.00 0.00 30 1015.9
20260906171500 37 128 8.0 16.1 0.00 0.00 0.00 32 1015.9
20260906171000 37 154 6.4 12.9 0.00 0.00 0.00 32 1016.0
20260906170500 37 212 4.8 14.5 0.00 0.00 0.00 32 1016.1
20260906170000 37 136 8.0 14.5 0.00 0.00 0.00 32 1016.2
20260906165500 37 122 8.0 16.1 0.00 0.00 0.00 32 1016.3
20260906165000 37 182 8.0 20.9 0.00 0.00 0.00 32 1016.3
20260906164500 36 146 8.0 22.5 0.00 0.00 0.00 33 1016.3
20260906164000 36 176 12.9 22.5 0.00 0.00 0.00 34 1016.4
20260906163500 36 211 8.0 17.7 0.00 0.00 0.00 33 1016.3
20260906163000 36 168 9.7 22.5 0.00 0.00 0.00 33 1016.3
20260906162500 36 147 11.3 20.9 0.00 0.00 0.00 33 1016.3
20260906162000 36 177 12.9 24.1 0.00 0.00 0.00 34 1016.3
20260906161500 36 183 4.8 12.9 0.00 0.00 0.00 33 1016.3
20260906161000 36 189 6.4 17.7 0.00 0.00 0.00 34 1016.3
20260906160500 36 124 4.8 12.9 0.00 0.00 0.00 34 1016.3
20260906160000 36 149 6.4 19.3 0.00 0.00 0.00 35 1016.3
20260906155500 35 201 8.0 14.5 0.00 0.00 0.00 35 1016.3
20260906155000 35 202 6.4 11.3 0.00 0.00 0.00 36 1016.3
20260906154500 35 208 8.0 16.1 0.00 0.00 0.00 37 1016.3
20260906154000 34 179 9.7 16.1 0.00 0.00 0.00 38 1016.3
20260906153500 34 207 6.4 14.5 0.00 0.00 0.00 38 1016.3
20260906153000 34 166 8.0 16.1 0.00 0.00 0.00 38 1016.3
20260906152500 34 194 4.8 12.9 0.00 0.00 0.00 38 1016.3
20260906152000 33 221 9.7 16.1 0.00 0.00 0.00 38 1016.3
20260906151500 33 205 8.0 14.5 0.00 0.00 0.00 39 1016.3
20260906151000 33 228 11.3 19.3 0.00 0.00 0.00 39 1016.3
20260906150500 33 191 6.4 12.9 0.00 0.00 0.00 40 1016.2
20260906150000 33 171 6.4 12.9 0.00 0.00 0.00 40 1016.2
20260906145500 33 197 4.8 16.1 0.00 0.00 0.00 40 1016.2
20260906145000 32 184 8.0 16.1 0.00 0.00 0.00 41 1016.2
20260906144500 32 204 6.4 14.5 0.00 0.00 0.00 41 1016.1
20260906144000 32 197 6.4 12.9 0.00 0.00 0.00 42 1016.2
20260906143500 32 195 6.4 12.9 0.00 0.00 0.00 44 1016.2
20260906143000 31 176 4.8 12.9 0.00 0.00 0.00 44 1016.2
20260906142500 31 177 3.2 12.9 0.00 0.00 0.00 44 1016.2
20260906142000 31 186 3.2 12.9 0.00 0.00 0.00 45 1016.3
20260906141500 31 205 3.2 12.9 0.00 0.00 0.00 47 1016.3
20260906141000 30 171 4.8 8.0 0.00 0.00 0.00 47 1016.3
20260906140500 30 165 4.8 6.4 0.00 0.00 0.00 49 1016.3
20260906140000 30 168 3.2 8.0 0.00 0.00 0.00 50 1016.3
20260906135500 29 177 4.8 6.4 0.00 0.00 0.00 50 1016.3
20260906135000 28 205 1.6 8.0 0.00 0.00 0.00 51 1016.3
20260906134500 28 176 6.4 11.3 0.00 0.00 0.00 52 1016.2
20260906134000 28 170 1.6 6.4 0.00 0.00 0.00 53 1016.1
20260906133500 28 175 4.8 12.9 0.00 0.00 0.00 53 1016.0
20260906133000 27 159 1.6 9.7 0.00 0.00 0.00 54 1015.9
20260906132500 27 178 3.2 6.4 0.00 0.00 0.00 54 1015.9
20260906132000 27 167 1.6 6.4 0.00 0.00 0.00 55 1015.8
20260906131500 27 170 6.4 14.5 0.00 0.00 0.00 56 1015.8
20260906131000 26 184 3.2 9.7 0.00 0.00 0.00 57 1015.7
20260906130500 26 175 4.8 9.7 0.00 0.00 0.00 58 1015.7
20260906130000 26 179 4.8 9.7 0.00 0.00 0.00 59 1015.6
20260906125500 25 180 3.2 6.4 0.00 0.00 0.00 61 1015.5
20260906125000 24 168 0.0 3.2 0.00 0.00 0.00 64 1015.4
20260906124500 23 160 0.0 1.6 0.00 0.00 0.00 65 1015.4
20260906124000 23 156 0.0 3.2 0.00 0.00 0.00 67 1015.4
20260906123500 23 0 0.0 1.6 0.00 0.00 0.00 67 1015.3
20260906123000 23 0 0.0 0.0 0.00 0.00 0.00 67 1015.3
20260906122500 23 0 0.0 0.0 0.00 0.00 0.00 66 1015.2
20260906122000 23 0 0.0 3.2 0.00 0.00 0.00 66 1015.2
20260906121500 23 0 0.0 3.2 0.00 0.00 0.00 65 1015.1
20260906121000 23 196 1.6 4.8 0.00 0.00 0.00 65 1015.0
20260906120500 23 236 1.6 3.2 0.00 0.00 0.00 64 1015.0
20260906120000 23 234 1.6 6.4 0.00 0.00 0.00 64 1014.9
20260906115500 24 220 1.6 3.2 0.00 0.00 0.00 63 1014.9
20260906115000 24 214 1.6 6.4 0.00 0.00 0.00 63 1015.0
20260906114500 24 207 1.6 6.4 0.00 0.00 0.00 62 1015.0
20260906114000 24 207 1.6 6.4 0.00 0.00 0.00 63 1014.9
20260906113500 24 193 1.6 3.2 0.00 0.00 0.00 63 1014.9
20260906113000 24 216 1.6 4.8 0.00 0.00 0.00 63 1014.8
20260906112500 24 198 1.6 3.2 0.00 0.00 0.00 63 1014.9
20260906112000 24 170 1.6 4.8 0.00 0.00 0.00 62 1014.9
20260906111500 24 189 3.2 6.4 0.00 0.00 0.00 62 1014.9
20260906111000 24 190 1.6 6.4 0.00 0.00 0.00 63 1014.9
20260906110500 24 201 1.6 4.8 0.00 0.00 0.00 63 1014.9
20260906110000 24 185 1.6 6.4 0.00 0.00 0.00 62 1014.9
20260906105500 25 180 3.2 6.4 0.00 0.00 0.00 62 1014.8
20260906105000 25 191 3.2 6.4 0.00 0.00 0.00 61 1014.8
20260906104500 25 195 3.2 6.4 0.00 0.00 0.00 61 1014.8
20260906104000 24 190 3.2 8.0 0.00 0.00 0.00 62 1014.8
20260906103500 25 199 1.6 6.4 0.00 0.00 0.00 61 1014.7
20260906103000 25 182 3.2 8.0 0.00 0.00 0.00 61 1014.7
20260906102500 25 184 4.8 8.0 0.00 0.00 0.00 60 1014.6
20260906102000 25 184 4.8 8.0 0.00 0.00 0.00 59 1014.5
20260906101500 25 177 6.4 9.7 0.00 0.00 0.00 59 1014.5
20260906101000 25 183 6.4 9.7 0.00 0.00 0.00 59 1014.5
20260906100500 25 185 4.8 8.0 0.00 0.00 0.00 59 1014.4
20260906100000 25 200 3.2 6.4 0.00 0.00 0.00 60 1014.5
20260906095500 25 195 3.2 6.4 0.00 0.00 0.00 59 1014.4
20260906095000 26 187 3.2 9.7 0.00 0.00 0.00 58 1014.5
20260906094500 26 180 6.4 12.9 0.00 0.00 0.00 57 1014.4
20260906094000 26 176 4.8 11.3 0.00 0.00 0.00 58 1014.4
20260906093500 25 181 4.8 8.0 0.00 0.00 0.00 58 1014.4
20260906093000 25 180 4.8 9.7 0.00 0.00 0.00 59 1014.3
20260906092500 25 190 3.2 6.4 0.00 0.00 0.00 58 1014.3
20260906092000 25 194 3.2 6.4 0.00 0.00 0.00 58 1014.3
20260906091500 26 197 3.2 6.4 0.00 0.00 0.00 58 1014.2
20260906091000 26 185 4.8 9.7 0.00 0.00 0.00 57 1014.2
20260906090500 26 184 4.8 9.7 0.00 0.00 0.00 56 1014.3
20260906090000 26 180 6.4 12.9 0.00 0.00 0.00 55 1014.2
20260906085500 26 178 6.4 11.3 0.00 0.00 0.00 55 1014.2
20260906085000 26 173 4.8 6.4 0.00 0.00 0.00 56 1014.1
20260906084500 26 170 3.2 12.9 0.00 0.00 0.00 56 1014.1
20260906084000 26 179 4.8 11.3 0.00 0.00 0.00 56 1014.1
20260906083500 26 176 6.4 12.9 0.00 0.00 0.00 55 1014.1
20260906083000 26 177 6.4 12.9 0.00 0.00 0.00 56 1014.1
20260906082500 26 180 6.4 12.9 0.00 0.00 0.00 56 1014.2
20260906082000 26 183 6.4 11.3 0.00 0.00 0.00 56 1014.3
20260906081500 26 185 4.8 9.7 0.00 0.00 0.00 56 1014.3
20260906081000 26 189 4.8 12.9 0.00 0.00 0.00 56 1014.3
20260906080500 26 186 6.4 11.3 0.00 0.00 0.00 56 1014.4
20260906080000 26 189 4.8 6.4 0.00 0.00 0.00 57 1014.3
20260906075500 26 189 3.2 12.9 0.00 0.00 0.00 56 1014.3
20260906075000 26 202 3.2 8.0 0.00 0.00 0.00 56 1014.2
20260906074500 26 185 4.8 9.7 0.00 0.00 0.00 56 1014.2
20260906074000 26 187 3.2 9.7 0.00 0.00 0.00 55 1014.1
20260906073500 27 203 3.2 12.9 0.00 0.00 0.00 54 1014.1
20260906073000 27 187 6.4 14.5 0.00 0.00 0.00 53 1014.1
20260906072500 27 179 8.0 16.1 0.00 0.00 0.00 52 1014.0
20260906072000 27 184 11.3 16.1 0.00 0.00 0.00 52 1014.1
20260906071500 27 188 9.7 17.7 0.00 0.00 0.00 53 1014.1
20260906071000 26 190 6.4 11.3 0.00 0.00 0.00 54 1014.1
20260906070500 26 207 3.2 11.3 0.00 0.00 0.00 54 1014.1
20260906070000 26 190 4.8 11.3 0.00 0.00 0.00 53 1014.2
20260906065500 26 194 3.2 6.4 0.00 0.00 0.00 53 1014.1
20260906065000 27 198 4.8 11.3 0.00 0.00 0.00 53 1014.1
20260906064500 27 197 4.8 11.3 0.00 0.00 0.00 52 1014.1
20260906064000 27 190 6.4 12.9 0.00 0.00 0.00 51 1014.1
20260906063500 27 187 6.4 12.9 0.00 0.00 0.00 52 1014.2
20260906063000 27 193 4.8 9.7 0.00 0.00 0.00 51 1014.2
20260906062500 28 186 4.8 8.0 0.00 0.00 0.00 50 1014.2
20260906062000 28 185 3.2 9.7 0.00 0.00 0.00 49 1014.2
20260906061500 28 181 6.4 12.9 0.00 0.00 0.00 48 1014.2
20260906061000 28 188 6.4 16.1 0.00 0.00 0.00 48 1014.2
20260906060500 28 178 6.4 14.5 0.00 0.00 0.00 47 1014.1
20260906060000 29 180 9.7 16.1 0.00 0.00 0.00 47 1014.1
20260906055500 29 177 8.0 19.3 0.00 0.00 0.00 46 1014.0
20260906055000 30 178 12.9 22.5 0.00 0.00 0.00 45 1014.0
20260906054500 30 180 9.7 22.5 0.00 0.00 0.00 45 1014.1
20260906054000 30 170 8.0 19.3 0.00 0.00 0.00 45 1014.1
20260906053500 30 166 8.0 14.5 0.00 0.00 0.00 45 1014.1
20260906053000 30 168 6.4 9.7 0.00 0.00 0.00 45 1014.1
20260906052500 30 154 4.8 11.3 0.00 0.00 0.00 45 1014.0
20260906052000 30 162 4.8 11.3 0.00 0.00 0.00 45 1014.1
20260906051500 30 144 6.4 12.9 0.00 0.00 0.00 45 1014.1
20260906051000 30 140 4.8 9.7 0.00 0.00 0.00 44 1014.0
20260906050500 30 141 6.4 14.5 0.00 0.00 0.00 44 1014.0
20260906050000 30 143 6.4 12.9 0.00 0.00 0.00 44 1013.9
20260906045500 30 137 4.8 16.1 0.00 0.00 0.00 44 1013.9
20260906045000 30 141 6.4 12.9 0.00 0.00 0.00 43 1013.7
20260906044500 30 140 8.0 14.5 0.00 0.00 0.00 43 1013.7
20260906044000 30 132 9.7 17.7 0.00 0.00 0.00 43 1013.7
20260906043500 30 138 6.4 11.3 0.00 0.00 0.00 44 1013.8
20260906043000 30 137 4.8 12.9 0.00 0.00 0.00 44 1013.9
20260906042500 30 136 6.4 12.9 0.00 0.00 0.00 44 1013.9
20260906042000 30 140 4.8 11.3 0.00 0.00 0.00 44 1013.8
20260906041500 30 141 4.8 9.7 0.00 0.00 0.00 44 1014.0
20260906041000 30 139 6.4 17.7 0.00 0.00 0.00 43 1014.0
20260906040500 30 137 6.4 14.5 0.00 0.00 0.00 43 1014.0
20260906040000 30 136 6.4 11.3 0.00 0.00 0.00 43 1014.0
20260906035500 30 129 4.8 6.4 0.00 0.00 0.00 44 1014.0
20260906035000 31 143 3.2 9.7 0.00 0.00 0.00 43 1014.0
20260906034500 31 166 4.8 9.7 0.00 0.00 0.00 43 1014.0
20260906034000 31 156 4.8 11.3 0.00 0.00 0.00 43 1013.9
20260906033500 31 167 3.2 8.0 0.00 0.00 0.00 43 1013.9
20260906033000 31 154 4.8 9.7 0.00 0.00 0.00 42 1013.9
20260906032500 31 163 3.2 9.7 0.00 0.00 0.00 42 1013.8
20260906032000 31 143 4.8 11.3 0.00 0.00 0.00 42 1013.7
20260906031500 31 150 4.8 9.7 0.00 0.00 0.00 42 1013.6
20260906031000 31 149 4.8 9.7 0.00 0.00 0.00 41 1013.5
20260906030500 31 145 4.8 11.3 0.00 0.00 0.00 41 1013.5
20260906030000 31 137 4.8 8.0 0.00 0.00 0.00 41 1013.5
20260906025500 31 144 4.8 8.0 0.00 0.00 0.00 41 1013.4
20260906025000 31 152 4.8 11.3 0.00 0.00 0.00 40 1013.4
20260906024500 32 137 6.4 12.9 0.00 0.00 0.00 40 1013.5
20260906024000 31 135 6.4 9.7 0.00 0.00 0.00 40 1013.6
20260906023500 31 130 6.4 12.9 0.00 0.00 0.00 40 1013.5
20260906023000 31 136 6.4 11.3 0.00 0.00 0.00 40 1013.3
20260906022500 32 136 4.8 12.9 0.00 0.00 0.00 40 1013.3
20260906022000 32 134 6.4 9.7 0.00 0.00 0.00 40 1013.3
20260906021500 32 139 3.2 8.0 0.00 0.00 0.00 40 1013.2
20260906021000 32 138 3.2 4.8 0.00 0.00 0.00 40 1013.1
20260906020500 32 145 3.2 6.4 0.00 0.00 0.00 39 1013.1
20260906020000 32 161 1.6 6.4 0.00 0.00 0.00 39 1013.0
20260906015500 32 156 1.6 6.4 0.00 0.00 0.00 39 1012.9
20260906015000 32 160 1.6 6.4 0.00 0.00 0.00 40 1012.9
20260906014500 32 132 4.8 11.3 0.00 0.00 0.00 39 1012.8
20260906014000 32 140 3.2 6.4 0.00 0.00 0.00 39 1012.7
20260906013500 32 136 3.2 6.4 0.00 0.00 0.00 39 1012.6
20260906013000 32 148 3.2 6.4 0.00 0.00 0.00 38 1012.4
20260906012500 32 143 3.2 12.9 0.00 0.00 0.00 38 1012.4
20260906012000 32 140 3.2 6.4 0.00 0.00 0.00 38 1012.3
20260906011500 33 135 3.2 8.0 0.00 0.00 0.00 38 1012.3
20260906011000 33 138 1.6 6.4 0.00 0.00 0.00 38 1012.3
20260906010500 33 135 3.2 6.4 0.00 0.00 0.00 37 1012.4
20260906010000 33 141 3.2 6.4 0.00 0.00 0.00 37 1012.4
20260906005500 33 158 1.6 6.4 0.00 0.00 0.00 36 1012.4
20260906005000 34 146 3.2 11.3 0.00 0.00 0.00 36 1012.3
20260906004500 34 136 3.2 8.0 0.00 0.00 0.00 35 1012.3
20260906004000 34 149 3.2 6.4 0.00 0.00 0.00 35 1012.3
20260906003500 35 159 3.2 11.3 0.00 0.00 0.00 34 1012.3
20260906003000 35 154 3.2 6.4 0.00 0.00 0.00 34 1012.4
20260906002500 35 158 3.2 14.5 0.00 0.00 0.00 33 1012.4
20260906002000 35 132 6.4 12.9 0.00 0.00 0.00 32 1012.4
20260906001500 36 152 4.8 9.7 0.00 0.00 0.00 32 1012.4
20260906001000 36 139 4.8 12.9 0.00 0.00 0.00 31 1012.4
20260906000500 36 137 8.0 19.3 0.00 0.00 0.00 31 1012.3
20260906000000 36 150 4.8 14.5 0.00 0.00 0.00 31 1012.2
20260905235500 36 129 11.3 16.1 0.00 0.00 0.00 30 1012.2
20260905235000 36 133 6.4 12.9 0.00 0.00 0.00 30 1012.1
20260905234500 36 155 4.8 17.7 0.00 0.00 0.00 30 1012.1
20260905234000 37 163 6.4 14.5 0.00 0.00 0.00 30 1012.1
20260905233500 37 146 4.8 16.1 0.00 0.00 0.00 30 1012.0
20260905233000 37 153 6.4 12.9 0.00 0.00 0.00 30 1012.0
20260905232500 37 182 6.4 16.1 0.00 0.00 0.00 30 1011.8
20260905232000 37 164 9.7 22.5 0.00 0.00 0.00 30 1011.7
20260905231500 37 171 9.7 16.1 0.00 0.00 0.00 29 1011.6
20260905231000 37 124 9.7 19.3 0.00 0.00 0.00 29 1011.5
20260905230500 37 127 9.7 17.7 0.00 0.00 0.00 30 1011.5
20260905230000 37 148 8.0 16.1 0.00 0.00 0.00 29 1011.4
20260905225500 37 152 9.7 22.5 0.00 0.00 0.00 30 1011.4
20260905225000 38 153 6.4 22.5 0.00 0.00 0.00 29 1011.4
20260905224500 38 136 6.4 19.3 0.00 0.00 0.00 29 1011.3
20260905224000 38 120 12.9 22.5 0.00 0.00 0.00 29 1011.3
20260905223500 38 136 6.4 17.7 0.00 0.00 0.00 29 1011.3
20260905223000 38 135 6.4 16.1 0.00 0.00 0.00 29 1011.3
20260905222500 38 131 4.8 12.9 0.00 0.00 0.00 30 1011.3
20260905222000 38 159 9.7 22.5 0.00 0.00 0.00 29 1011.3
20260905221500 38 161 8.0 20.9 0.00 0.00 0.00 29 1011.3
20260905221000 38 143 6.4 12.9 0.00 0.00 0.00 29 1011.3
20260905220500 38 122 12.9 20.9 0.00 0.00 0.00 29 1011.3
20260905220000 38 121 9.7 17.7 0.00 0.00 0.00 29 1011.4
20260905215500 38 142 8.0 19.3 0.00 0.00 0.00 29 1011.4
20260905215000 38 127 9.7 20.9 0.00 0.00 0.00 29 1011.5
20260905214500 37 171 9.7 17.7 0.00 0.00 0.00 31 1011.5
20260905214000 38 169 6.4 16.1 0.00 0.00 0.00 29 1011.6
20260905213500 38 145 6.4 16.1 0.00 0.00 0.00 28 1011.6
20260905213000 38 174 8.0 19.3 0.00 0.00 0.00 29 1011.7
20260905212500 39 168 11.3 19.3 0.00 0.00 0.00 29 1011.8
20260905212000 39 148 6.4 19.3 0.00 0.00 0.00 29 1011.8
20260905211500 38 177 8.0 17.7 0.00 0.00 0.00 30 1011.9